Location: Nitra
(0.0000°N, 18.0833°E)
Time: 20:12:08
(UTC+02:00)

A-11 Canister half - Pass Details

Date: 05 April 2023
Orbit: 1526 x 1682 km, 47.3° (Epoch: 08 June)

Event Time Altitude Azimuth Distance (km) Brightness Sun altitude
Rises 21:06:52 0° 343° (NNW) 4,796 11.9 -33.9°
Reaches altitude 10° 21:10:46 10° 355° (N) 3,786 11.1 -34.9°
Enters shadow 21:14:47 21° 17° (NNE) 2,985 10.4 -35.9°
Maximum altitude 21:18:17 26° 48° (NE) 2,707 - -36.7°
Drops below altitude 10° 21:25:37 10° 100° (E) 3,711 - -38.5°
Sets 21:29:20 0° 112° (ESE) 4,683 - -39.5°
